Location: �quirre
(50.4736°N, 2.2351°E)
Time: 10:44:01
(UTC+00:00)

H-2A R/B - Pass Details

Date: 07 August 2020
Orbit: 578 x 654 km, 98.5° (Epoch: 20 September)

Event Time Altitude Azimuth Distance (km) Brightness Sun altitude
Rises 02:09:45 0° 129° (SE) 2,806 5.4 -17.1°
Reaches altitude 10° 02:12:14 10° 115° (ESE) 1,903 4.7 -16.9°
Maximum altitude 02:15:29 23° 62° (ENE) 1,250 4.4 -16.6°
Drops below altitude 10° 02:18:45 10° 9° (N) 1,906 5.6 -16.3°
Sets 02:21:13 0° 355° (N) 2,811 6.2 -16.1°
